Weather History for Philip, SD

Change the Weather History Date:

Wednesday, May 22, 2013

  Actual Average Record
Temperature  
Mean Temperature 51 °F 59 °F  
Max Temperature 58 °F 72 °F 98 °F (2012)
Min Temperature 44 °F 46 °F 23 °F (1963)
Degree Days  
Heating Degree Days 14 7  
Month to date heating degree days 242 220  
Since 1 July heating degree days 6992 7087  
Cooling Degree Days 0 1  
Month to date cooling degree days 13 17  
Year to date cooling degree days 13 20  
Growing Degree Days 2 (Base 50)    
Moisture  
Dew Point 46 °F    
Average Humidity 78    
Maximum Humidity 93    
Minimum Humidity 62    
Precipitation  
Precipitation 0.01 in 0.10 in 1.88 in (2008)
Month to date precipitation 1.68 2.15  
Year to date precipitation 4.86 6.04  
Sea Level Pressure  
Sea Level Pressure 29.98 in    
Wind  
Wind Speed 10 mph (North)    
Max Wind Speed 18 mph    
Max Gust Speed 22 mph    
Visibility 9 miles    
Events Rain    
T = Trace of Precipitation, MM = Missing Value Source: NWS Daily Summary

Daily Weather History Graph

Daily Weather History Graph

Search for Another Location

Airport:

Trip Planner

Search our weather history database for the weather conditions in past years. The results will help you decide how hot, cold, wet, or windy it might be!

Date:

Astronomy

May. 22, 2013 Rise Set
Actual Time 5:13 AM MDT 8:13 PM MDT
Civil Twilight 4:38 AM MDT 8:48 PM MDT
Nautical Twilight 3:54 AM MDT 9:32 PM MDT
Astronomical Twilight 3:02 AM MDT 10:24 PM MDT
Moon 5:33 PM MDT (5/22) 3:24 AM MDT (5/22)
Length of Visible Light 16h 09m
Length of Day
15h 00m
Waxing Gibbous, 92% of the Moon is Illuminated
May 22
Waxing Gibbous
May 24
Full
May 31
Last Quarter
Jun 8
New
Jun 16
First Quarter

Hourly Weather History & Observations

Time (MDT) Temp. Windchill Dew Point Humidity Pressure Visibility Wind Dir Wind Speed Gust Speed Precip Events Conditions
12:07 AM 46.4 °F 41.5 °F 44.6 °F 93% 29.93 in 10.0 mi NW 10.4 mph - N/A   Overcast
12:55 AM 46.9 °F - 44.1 °F 90% 29.93 in 10.0 mi NNW 11.5 mph - N/A   Overcast
1:06 AM 46.4 °F 41.5 °F 44.6 °F 93% 29.92 in 10.0 mi NW 10.4 mph - N/A   Overcast
1:55 AM 46.9 °F - 44.1 °F 90% 29.91 in 10.0 mi NW 10.4 mph - N/A   Overcast
2:37 AM 46.4 °F 41.1 °F 44.6 °F 93% 29.90 in 8.0 mi NNW 11.5 mph - N/A   Overcast
2:55 AM 46.0 °F 40.2 °F 45.0 °F 96% 29.91 in 4.0 mi NNW 12.7 mph - N/A   Overcast
3:12 AM 46.4 °F 41.1 °F 44.6 °F 93% 29.90 in 10.0 mi North 11.5 mph - N/A   Overcast
3:37 AM 46.4 °F 41.5 °F 44.6 °F 93% 29.91 in 10.0 mi North 10.4 mph - N/A   Overcast
3:55 AM 46.0 °F 41.9 °F 44.1 °F 93% 29.92 in 10.0 mi North 8.1 mph - N/A   Overcast
4:15 AM 46.4 °F 42.9 °F 44.6 °F 93% 29.91 in 10.0 mi NNW 6.9 mph - N/A   Overcast
4:29 AM 46.4 °F 42.9 °F 44.6 °F 93% 29.92 in 10.0 mi NNW 6.9 mph - N/A   Overcast
4:55 AM 46.9 °F - 45.0 °F 93% 29.93 in 10.0 mi NNW 9.2 mph - N/A   Overcast
5:55 AM 46.9 °F - 45.0 °F 93% 29.94 in 3.0 mi North 9.2 mph - 0.00 in Rain Light Rain
6:03 AM 46.4 °F 42.4 °F 46.4 °F 100% 29.93 in 2.0 mi North 8.1 mph - 0.00 in Rain Light Rain
6:23 AM 46.4 °F 42.9 °F 46.4 °F 100% 29.93 in 6.0 mi NNW 6.9 mph - 0.01 in Rain Light Rain
6:35 AM 46.4 °F 42.9 °F 46.4 °F 100% 29.93 in 9.0 mi NNW 6.9 mph - 0.01 in   Overcast
6:55 AM 48.0 °F - 46.0 °F 93% 29.95 in 10.0 mi NW 8.1 mph - 0.01 in   Overcast
7:14 AM 46.4 °F 41.9 °F 46.4 °F 100% 29.94 in 4.0 mi NNW 9.2 mph - N/A   Overcast
7:55 AM 48.0 °F - 46.0 °F 93% 29.96 in 7.0 mi NNW 11.5 mph - 0.00 in Rain Light Rain
8:09 AM 48.2 °F - 44.6 °F 87% 29.95 in 10.0 mi NNW 15.0 mph - N/A   Overcast
8:33 AM 46.4 °F 40.4 °F 44.6 °F 93% 29.96 in 9.0 mi North 13.8 mph - N/A   Overcast
8:55 AM 48.0 °F - 45.0 °F 89% 29.97 in 10.0 mi North 15.0 mph - N/A   Overcast
9:55 AM 48.0 °F - 45.0 °F 89% 29.98 in 10.0 mi North 11.5 mph - N/A   Overcast
10:55 AM 50.0 °F - 45.0 °F 83% 29.99 in 10.0 mi North 16.1 mph - N/A   Overcast
11:55 AM 50.0 °F - 45.0 °F 83% 30.00 in 10.0 mi North 15.0 mph - 0.00 in   Overcast
12:29 PM 51.8 °F - 44.6 °F 76% 29.99 in 10.0 mi North 15.0 mph - N/A   Overcast
12:55 PM 52.0 °F - 46.0 °F 80% 30.00 in 10.0 mi North 12.7 mph - N/A   Overcast
1:55 PM 54.0 °F - 46.0 °F 75% 30.00 in 10.0 mi NNE 12.7 mph - N/A   Overcast
2:53 PM 57.2 °F - 44.6 °F 63% 30.00 in 10.0 mi NNE 11.5 mph - N/A   Overcast
2:55 PM 57.0 °F - 45.0 °F 64% 30.00 in 10.0 mi NNE 11.5 mph - N/A   Overcast
3:55 PM 57.0 °F - 45.0 °F 64% 30.01 in 10.0 mi NNE 13.8 mph - N/A   Overcast
4:55 PM 57.9 °F - 48.0 °F 70% 30.02 in 10.0 mi NE 12.7 mph - N/A   Overcast
5:55 PM 57.9 °F - 48.0 °F 70% 30.03 in 10.0 mi NE 11.5 mph - N/A   Overcast
6:55 PM 57.9 °F - 48.9 °F 72% 30.04 in 10.0 mi ENE 12.7 mph - N/A   Overcast
7:55 PM 55.9 °F - 48.9 °F 77% 30.07 in 10.0 mi East 6.9 mph - N/A   Overcast
8:55 PM 54.0 °F - 50.0 °F 86% 30.10 in 10.0 mi ENE 6.9 mph - N/A   Overcast
9:55 PM 50.0 °F - 48.0 °F 93% 30.13 in 10.0 mi East 4.6 mph - N/A   Clear
10:55 PM 48.9 °F - 46.0 °F 90% 30.16 in 10.0 mi ENE 4.6 mph - N/A   Clear
11:55 PM 46.0 °F 43.9 °F 45.0 °F 96% 30.17 in 10.0 mi ENE 4.6 mph - N/A   Clear